Previsão horária em Alia

Hoje, 25 Novembro, Quarta-feira

Tempo Temperatura Precipitação Vento Pressão Humidade
00:00 +12°C° 0.1 mm 1 m/s 712 mmHg 90%
01:00 +12°C° 0.1 mm 1 m/s 712 mmHg 91%
02:00 +12°C° 0.1 mm 1 m/s 712 mmHg 91%
03:00 +12°C° 0.1 mm 1 m/s 711 mmHg 92%
04:00 +12°C° 0.1 mm 1 m/s 711 mmHg 92%
05:00 +11°C° 0 mm 1 m/s 711 mmHg 92%
06:00 +11°C° 0 mm 1 m/s 711 mmHg 92%
07:00 +11°C° 0 mm 1 m/s 712 mmHg 93%
08:00 +12°C° 0 mm 1 m/s 712 mmHg 87%
09:00 +13°C° 0 mm 1 m/s 712 mmHg 81%
10:00 +13°C° 0 mm 0 m/s 712 mmHg 75%
11:00 +15°C° 0 mm 1 m/s 712 mmHg 72%
12:00 +16°C° 0 mm 1 m/s 712 mmHg 69%
13:00 +16°C° 0 mm 1 m/s 712 mmHg 67%
14:00 +16°C° 0.1 mm 1 m/s 712 mmHg 70%
15:00 +15°C° 0.1 mm 1 m/s 712 mmHg 73%
16:00 +15°C° 0.1 mm 1 m/s 712 mmHg 76%
17:00 +14°C° 0.1 mm 1 m/s 712 mmHg 81%
18:00 +13°C° 0.1 mm 1 m/s 712 mmHg 86%
19:00 +12°C° 0.1 mm 1 m/s 711 mmHg 92%
20:00 +12°C° 0 mm 1 m/s 712 mmHg 92%
21:00 +12°C° 0 mm 1 m/s 712 mmHg 92%
22:00 +11°C° 0 mm 1 m/s 712 mmHg 93%
23:00 +11°C° 0 mm 1 m/s 712 mmHg 93%

Amanhã, 26 Novembro, Quinta-feira

Tempo Temperatura Precipitação Vento Pressão Humidade
00:00 +11°C° 0 mm 1 m/s 712 mmHg 93%
01:00 +11°C° 0 mm 1 m/s 711 mmHg 93%
02:00 +11°C° 0 mm 1 m/s 711 mmHg 92%
03:00 +10°C° 0 mm 1 m/s 711 mmHg 92%
04:00 +10°C° 0 mm 1 m/s 711 mmHg 92%
05:00 +10°C° 0 mm 1 m/s 711 mmHg 92%
06:00 +10°C° 0 mm 1 m/s 711 mmHg 92%
07:00 +10°C° 0 mm 1 m/s 711 mmHg 91%
08:00 +10°C° 0 mm 2 m/s 712 mmHg 85%
09:00 +13°C° 0 mm 2 m/s 712 mmHg 79%
10:00 +14°C° 0 mm 2 m/s 712 mmHg 73%
11:00 +15°C° 0 mm 2 m/s 712 mmHg 71%
12:00 +15°C° 0 mm 2 m/s 712 mmHg 68%
13:00 +16°C° 0 mm 2 m/s 712 mmHg 66%
14:00 +16°C° 0.1 mm 2 m/s 711 mmHg 69%
15:00 +15°C° 0.1 mm 2 m/s 711 mmHg 71%
16:00 +15°C° 0.1 mm 2 m/s 711 mmHg 74%
17:00 +14°C° 0.1 mm 2 m/s 711 mmHg 78%
18:00 +13°C° 0.1 mm 2 m/s 711 mmHg 83%
19:00 +12°C° 0.1 mm 2 m/s 711 mmHg 87%
20:00 +12°C° 0 mm 2 m/s 711 mmHg 89%
21:00 +10°C° 0 mm 2 m/s 711 mmHg 90%
22:00 +10°C° 0 mm 2 m/s 711 mmHg 91%
23:00 +9°C° 0 mm 2 m/s 711 mmHg 90%

Depois de amanhã, 27 Novembro, Sexta-feira

Tempo Temperatura Precipitação Vento Pressão Humidade
00:00 +9°C° 0 mm 2 m/s 710 mmHg 90%
01:00 +9°C° 0 mm 2 m/s 710 mmHg 90%
02:00 +9°C° 0 mm 2 m/s 710 mmHg 89%
03:00 +9°C° 0 mm 2 m/s 710 mmHg 89%
04:00 +8°C° 0 mm 2 m/s 710 mmHg 88%
05:00 +8°C° 0 mm 2 m/s 710 mmHg 88%
06:00 +8°C° 0 mm 3 m/s 710 mmHg 88%
07:00 +8°C° 0 mm 3 m/s 709 mmHg 88%
08:00 +10°C° 0 mm 3 m/s 710 mmHg 82%
09:00 +11°C° 0 mm 3 m/s 710 mmHg 76%
10:00 +12°C° 0 mm 4 m/s 711 mmHg 71%
11:00 +13°C° 0 mm 4 m/s 711 mmHg 68%
12:00 +14°C° 0 mm 4 m/s 710 mmHg 66%
13:00 +14°C° 0 mm 4 m/s 710 mmHg 64%
14:00 +14°C° 0 mm 4 m/s 710 mmHg 66%
15:00 +13°C° 0 mm 4 m/s 709 mmHg 69%
16:00 +13°C° 0 mm 3 m/s 709 mmHg 71%
17:00 +12°C° 0 mm 4 m/s 709 mmHg 74%
18:00 +11°C° 0 mm 4 m/s 709 mmHg 78%
19:00 +11°C° 0 mm 4 m/s 709 mmHg 81%
20:00 +10°C° 0 mm 4 m/s 709 mmHg 80%
21:00 +10°C° 0 mm 4 m/s 709 mmHg 80%
22:00 +10°C° 0 mm 4 m/s 708 mmHg 80%
23:00 +10°C° 0 mm 4 m/s 708 mmHg 81%

28 Novembro, Sábado

Tempo Temperatura Precipitação Vento Pressão Humidade
00:00 +9°C° 0 mm 5 m/s 708 mmHg 83%
01:00 +9°C° 0 mm 5 m/s 708 mmHg 84%
02:00 +10°C° 0 mm 5 m/s 707 mmHg 86%
03:00 +10°C° 0 mm 5 m/s 707 mmHg 88%
04:00 +10°C° 0 mm 5 m/s 707 mmHg 89%
05:00 +12°C° 0.1 mm 5 m/s 706 mmHg 89%
06:00 +12°C° 0.1 mm 5 m/s 706 mmHg 89%
07:00 +11°C° 0.1 mm 6 m/s 706 mmHg 90%
08:00 +12°C° 0.1 mm 7 m/s 706 mmHg 85%
09:00 +12°C° 0.1 mm 8 m/s 706 mmHg 81%
10:00 +13°C° 0.1 mm 10 m/s 706 mmHg 77%
11:00 +14°C° 0.2 mm 10 m/s 705 mmHg 75%
12:00 +14°C° 0.2 mm 10 m/s 705 mmHg 72%
13:00 +14°C° 0.2 mm 11 m/s 704 mmHg 70%
14:00 +14°C° 0.5 mm 10 m/s 704 mmHg 72%
15:00 +13°C° 0.5 mm 10 m/s 703 mmHg 74%
16:00 +13°C° 0.5 mm 10 m/s 702 mmHg 76%
17:00 +12°C° 0.9 mm 9 m/s 703 mmHg 78%
18:00 +11°C° 0.9 mm 7 m/s 703 mmHg 80%
19:00 +11°C° 0.9 mm 6 m/s 703 mmHg 82%
20:00 +10°C° 0.8 mm 5 m/s 703 mmHg 82%
21:00 +11°C° 0.8 mm 4 m/s 703 mmHg 83%
22:00 +10°C° 0.8 mm 3 m/s 703 mmHg 84%
23:00 +10°C° 0.1 mm 3 m/s 702 mmHg 83%

29 Novembro, Domingo

Tempo Temperatura Precipitação Vento Pressão Humidade
00:00 +10°C° 0.1 mm 3 m/s 702 mmHg 83%
01:00 +10°C° 0.1 mm 3 m/s 702 mmHg 83%
02:00 +9°C° 0 mm 3 m/s 701 mmHg 83%
03:00 +9°C° 0 mm 3 m/s 701 mmHg 84%
04:00 +9°C° 0 mm 3 m/s 701 mmHg 84%
05:00 +9°C° 0 mm 3 m/s 700 mmHg 84%
06:00 +9°C° 0 mm 3 m/s 700 mmHg 83%
07:00 +9°C° 0 mm 3 m/s 700 mmHg 83%
08:00 +10°C° 0.1 mm 4 m/s 700 mmHg 80%
09:00 +11°C° 0.1 mm 4 m/s 700 mmHg 77%
10:00 +12°C° 0.1 mm 5 m/s 700 mmHg 74%
11:00 +10°C° 1.2 mm 5 m/s 699 mmHg 79%
12:00 +10°C° 1.2 mm 5 m/s 699 mmHg 84%
13:00 +9°C° 1.2 mm 5 m/s 698 mmHg 88%
14:00 +11°C° 1 mm 4 m/s 698 mmHg 87%
15:00 +11°C° 1 mm 4 m/s 698 mmHg 86%
16:00 +11°C° 1 mm 3 m/s 697 mmHg 84%
17:00 +11°C° 0.4 mm 3 m/s 697 mmHg 86%
18:00 +10°C° 0.4 mm 3 m/s 698 mmHg 89%
19:00 +10°C° 0.4 mm 3 m/s 698 mmHg 91%
20:00 +10°C° 0.2 mm 3 m/s 698 mmHg 92%
21:00 +9°C° 0.2 mm 3 m/s 698 mmHg 93%
22:00 +9°C° 0.2 mm 3 m/s 699 mmHg 94%
23:00 +9°C° 0 mm 2 m/s 699 mmHg 94%

30 Novembro, Segunda-feira

Tempo Temperatura Precipitação Vento Pressão Humidade
00:00 +9°C° 0 mm 2 m/s 699 mmHg 95%
01:00 +9°C° 0 mm 2 m/s 699 mmHg 95%
02:00 +8°C° 0 mm 2 m/s 700 mmHg 94%
03:00 +8°C° 0 mm 2 m/s 700 mmHg 94%
04:00 +9°C° 0 mm 1 m/s 700 mmHg 93%
05:00 +9°C° 0.1 mm 1 m/s 701 mmHg 93%
06:00 +9°C° 0.1 mm 2 m/s 701 mmHg 92%
07:00 +9°C° 0.1 mm 2 m/s 702 mmHg 92%
08:00 +10°C° 0.1 mm 2 m/s 703 mmHg 88%
09:00 +11°C° 0.1 mm 3 m/s 703 mmHg 83%
10:00 +12°C° 0.1 mm 3 m/s 704 mmHg 79%
11:00 +13°C° 0.1 mm 3 m/s 704 mmHg 74%
12:00 +14°C° 0.1 mm 3 m/s 705 mmHg 69%
13:00 +14°C° 0.1 mm 3 m/s 705 mmHg 64%
14:00 +14°C° 0 mm 3 m/s 705 mmHg 67%
15:00 +14°C° 0 mm 2 m/s 705 mmHg 70%
16:00 +14°C° 0 mm 2 m/s 705 mmHg 73%
17:00 +13°C° 0 mm 1 m/s 706 mmHg 77%
18:00 +12°C° 0 mm 1 m/s 706 mmHg 82%
19:00 +10°C° 0 mm 1 m/s 706 mmHg 87%
20:00 +10°C° 0 mm 1 m/s 706 mmHg 87%
21:00 +10°C° 0 mm 1 m/s 706 mmHg 88%
22:00 +10°C° 0 mm 1 m/s 707 mmHg 88%
23:00 +10°C° 0 mm 1 m/s 707 mmHg 88%
Mostrar mais